COSMOS 2251 DEB, 35895

Orbit data source: Space-Track

COSMOS 2251 DEB, 35895 is space debris in LEO originally from a launch on Wed, 16 Jun 1993 UTC launched from the Plesetsk Missile And Space Complex (PKMTR). The debris from Iridium 33, an American commercial communications satellite, has been tracked extensively since its accidental collision with the defunct Russian satellite Cosmos 2251 in 2009. This event, occurring at high speed in low Earth orbit (LEO), generated thousands of pieces of space debris, significantly increasing the risk of further collisions. The Iridium 33 debris cloud has impacted space traffic management and orbital debris mitigation strategies, making it a subject of ongoing study in space situational awareness.

Loading next visibility...
Identifier
35895, 1993-036AUJ
Orbit
LEO
Country
Flag of CISCIS
Related business
Manufacturer
Unknown
Mission
Spacecraft
Bus & Motor
Unknown
Mass
Unknown
Launch date (UTC)
1993-06-16 (33 years ago)
Launch vehicle
Unknown
Launch site
Plesetsk Missile And Space Complex (PKMTR)
Object type
Payload
Rocket body
Debris
Shape & HBR
Unknown shape, 0.1 m
Radar Cross Section
Small (<0.1 m²)

Expand to show TLE details & history
Last TLE update: 5 days ago

TLE from 5 days ago
0 COSMOS 2251 DEB
1 35895U 93036AUJ 26260.24413794  .00001279  00000-0  70063-3 0  9999
2 35895  74.0377 223.8761 0206063 257.2071 100.5968 14.02723685629161
Epoch: 2026-09-17T05:51Z
TLE epoch observation values (Epoch: 2026-09-17T05:51:33.518Z)
Latitude
-0.00001°
Longitude
139.80228°
Altitude
917.437 km
Speed
7.378 km/s
True Right ascension
14h 55m 30s
True Declination
0° 00' 00"
Sunlit
Object was in daylight at epoch
Visualization orbit readout
Latitude
Unknown
Longitude
Unknown
Altitude
Unknown
Speed
Unknown
Apparent Right ascension
Unknown
Apparent Declination
Unknown
Sunlit
N/A
Visualization observer readout
Local Sidereal Time
00:56:11
Azimuth
Unknown
Elevation
Unknown
Doppler factor
Unknown
Orbital elements
Apogee altitude
1,031.643 km
Perigee altitude
732.433 km
Semi-major axis
7,260.175 km
Eccentricity
0.02061
Inclination
74.0377°
RAAN
223.8761°
Arg. of periapsis
257.2071°
True anomaly
102.90627°
Mean anomaly
100.5968°
Eccentric anomaly
101.7527°
Mean motion
3.50851 °/min
Orbital period
102.61 mins
BSTAR
0.00070063

Documentation

Showing up to 5 results
|